Regional Weather Roundup
Issued by NWS Huntsville, AL

Home | Current Version | Previous Version | Text Only | Print | Product List | Glossary On
Versions: 1 2 3 4 5 6 7 8 9 10 11 12 13 14 15 16 17 18 19 20 21 22 23 24 25 26 27 28 29 30 31 32 33 34 35 36 37 38 39 40 41 42 43 44 45 46 47 48 49 50
000
ASUS44 KHUN 281010
RWRHUN

WEATHER ROUNDUP FOR THE TENNESSEE VALLEY
NATIONAL WEATHER SERVICE HUNTSVILLE AL
400 AM CST FRI NOV 28 2014

ALZ001>004-281100-
NORTHWEST ALABAMA

CITY           SKY/WX    TMP DP  RH WIND       PRES   REMARKS
COURTLAND HCN    N/A     25  32 100 CALM        N/A
SHOALS AIRPORT CLEAR     26  21  81 CALM      30.45S
$$

ALZ005>007-016-281100-
NORTH CENTRAL ALABAMA

CITY           SKY/WX    TMP DP  RH WIND       PRES   REMARKS
CULLMAN AG STN   N/A     27 N/A N/A CALM        N/A
DECATUR AP     CLEAR     27  22  81 NE5       30.44F WCI  22
HUNTSVILLE AP  CLEAR     28  22  78 CALM      30.43F
HUN NWS/UAH      N/A     28  20  72 NW1         N/A
MERIDIANVILLE  CLEAR     25  19  80 CALM      30.43S
REDSTONE ARSN  CLEAR     25  22  89 NW1       30.43S
VINEMONT AP    FAIR      26  22  85 N5        30.42S WCI  20
$$

ALZ008>010-281100-
NORTHEAST ALABAMA

CITY           SKY/WX    TMP DP  RH WIND       PRES   REMARKS
ALBERTVILLE    CLEAR     28  27  93 CALM      30.38F
FORT PAYNE     CLEAR     25  19  80 CALM      30.40S
SCOTTSBORO AP  PTCLDY    25  21  86 CALM      30.44R
VALLEY HEAD      N/A     25 N/A N/A MISG        N/A
$$

TNZ076-096-097-281100-
SOUTHEASTERN MIDDLE TENNESSEE

CITY           SKY/WX    TMP DP  RH WIND       PRES   REMARKS
TULLAHOMA      CLEAR     19  18  93 CALM      30.42R
WINCHESTER     CLEAR     19  18  93 CALM      30.42R
$$

...SURROUNDING SITES...

CITY           SKY/WX    TMP DP  RH WIND       PRES   REMARKS
ATLANTA        CLEAR     29  21  72 NW6       30.36S WCI  23
ANNISTON       CLEAR     30  23  75 NE3       30.42S
BIRMINGHAM     CLEAR     29  24  82 N3        30.44S
CHATTANOOGA    CLEAR     30  19  63 N7        30.42S WCI  23
CORINTH          N/A     25  23  93 CALM      30.44S
DALTON         CLEAR     28  23  80 NW6       30.40S WCI  22
GADSDEN        CLEAR     27  19  74 NE5       30.43R WCI  21
GOLDEN TRNGL   CLEAR     27  23  86 NE6       30.43F WCI  20
HALEYVILLE     FAIR      24  22  92 CALM      30.44
JACKSON TN     CLEAR     24  21  88 CALM      30.43S
LEWISBURG      FAIR      20  17  88 CALM      30.43F
MEMPHIS        CLEAR     32  25  75 SE7       30.41F WCI  26
MURFREESBORO   FAIR      25  21  84 CALM      30.43S
NASHVILLE      PTCLDY    23  20  88 S3        30.43F
OXFORD MS      FAIR      28  25  86 SE5       30.44F WCI  23
ROME           CLEAR     27  21  78 CALM      30.40F
SAVANNAH       CLEAR     23  21  93 CALM      30.43F
TUPELO         CLEAR     28  25  88 CALM      30.45F
TUSCALOOSA     CLEAR     28  25  88 CALM      30.46F
$$

...GULF COAST WEATHER...

CITY           SKY/WX    TMP DP  RH WIND       PRES   REMARKS
GULFPORT       CLEAR     37  31  78 CALM      30.42S
PASCAGOULA     CLEAR     32  30  92 CALM      30.43R
MOBILE         CLEAR     35  30  82 NE9       30.41F WCI  28
GULF SHORES    SUNNY     35  31  83 NE3       30.41S
PENSACOLA      CLEAR     38  31  76 N7        30.40F WCI  33
DESTIN         CLEAR     40  33  76 N9        30.40S WCI  34
PANAMA CITY    FAIR      40  32  72 VRB6      30.38F
APPALACHICOLA  CLEAR     42  32  67 N12       30.36F
$$



USA.gov is the U.S. government's official web portal to all federal, state and local government web resources and services.